Regional Weather Roundup
Issued by NWS

Home | Current Version | Previous Version | Text Only | Print | Product List | Glossary Off
Versions: 1 2 3 4 5 6 7 8 9 10 11 12 13 14 15 16 17 18 19 20 21 22 23 24 25 26 27 28 29 30 31 32 33 34 35 36 37 38 39 40 41 42 43 44 45 46 47 48 49 50

000
ASUS43 KLMK 210810
RWRKY
KENTUCKY REGIONAL WEATHER ROUNDUP
NATIONAL WEATHER SERVICE LOUISVILLE KY
400 AM EDT SUN SEP 21 2014

NOTE "FAIR" INDICATES FEW OR NO CLOUDS BELOW 12,000 FEET
WITH NO SIGNIFICANT WEATHER AND/OR OBSTRUCTIONS TO VISIBILITY.

KYZ001>023-026-027-061>063-070>075-210900-
WESTERN AND SOUTH CENTRAL KENTUCKY

CITY           SKY/WX    TMP DP  RH WIND       PRES   REMARKS
PADUCAH        CLEAR     74  67  78 SW7       29.94F
HENDERSON      MOCLDY    70  64  83 SW7       29.91F
OWENSBORO      CLEAR     70  67  90 SW8       29.92F
HOPKINSVILLE   CLEAR     68  68 100 SW8       29.96F
BOWLING GREEN  PTCLDY    69  65  86 SW6       29.96S
GLASGOW        CLEAR     66  66 100 CALM      29.96S
$$

KYZ024-025-028>034-038-045-046-053-210900-
NORTH CENTRAL KENTUCKY

CITY           SKY/WX    TMP DP  RH WIND       PRES   REMARKS
LOUISVILLE/SDF MOCLDY    74  65  73 SW13      29.89F
LOUISVILLE/LOU CLEAR     72  65  78 SW6       29.90F
FORT KNOX      CLEAR     70  66  87 SW10      29.91F
$$

KYZ035>037-039>044-047>052-055>060-089>105-210900-
NORTHEAST KENTUCKY

CITY           SKY/WX    TMP DP  RH WIND       PRES   REMARKS
LEXINGTON      CLEAR     69  64  84 S8        29.92F
COVINGTON      MOCLDY    70  64  81 SW8       29.87S
FRANKFORT      CLEAR     68  64  87 SW7       29.90F
$$

KYZ054-064>069-076>088-106>120-210900-
SOUTHEAST KENTUCKY

CITY           SKY/WX    TMP DP  RH WIND       PRES   REMARKS
JACKSON        CLEAR     65  61  87 CALM      29.96F
LONDON         CLEAR     64  60  87 S5        29.98F
SOMERSET       CLEAR     64  64 100 CALM      29.98S
MIDDLESBORO    CLOUDY    59  59 100 CALM      30.01F FOG
MONTICELLO     SUNNY     63  62  96 CALM      29.99F
$$




USA.gov is the U.S. government's official web portal to all federal, state and local government web resources and services.